Location: Camp Creek
(33.9000°N, 111.8167°W)
Time: 04:04:34
(UTC-07:00)

Cosmos 1656 - Visible Passes

Search period start: 25 May 2016 00:00
Search period end: 04 June 2016 00:00
Orbit: 797 x 851 km, 71.1° (Epoch: 25 May)

Date Brightness Start Highest point End Pass type
(mag) Time Alt. Az. Time Alt. Az. Time Alt. Az.
25 May 5.6 00:44:33 10° N 00:48:49 21° ENE 00:49:40 21° ENE visible
25 May 4.5 02:27:15 10° NNW 02:31:04 37° WNW 02:31:04 37° WNW visible
26 May 5.8 00:24:27 10° NNE 00:28:18 18° ENE 00:29:07 18° ENE visible
26 May 4.5 02:06:44 10° NNW 02:10:30 39° NW 02:10:30 39° NW visible
27 May 5.9 00:04:28 10° NNE 00:07:46 15° NE 00:08:39 15° ENE visible
27 May 4.5 01:46:16 10° NNW 01:50:03 42° NW 01:50:03 42° NW visible
27 May 6.1 23:44:37 10° NNE 23:47:14 13° NE 23:48:14 13° ENE visible
28 May 4.5 01:25:49 10° NNW 01:29:39 44° NNW 01:29:39 44° NNW visible
28 May 6.2 23:25:08 10° NE 23:26:41 11° NE 23:27:54 10° ENE visible
29 May 4.6 01:05:24 10° NNW 01:09:18 45° NNW 01:09:18 45° NNW visible
30 May 4.6 00:45:01 10° NNW 00:49:01 46° N 00:49:01 46° N visible
31 May 4.6 00:24:39 10° NNW 00:28:46 45° N 00:28:46 45° N visible
01 Jun 4.7 00:04:18 10° N 00:08:33 43° NNE 00:08:33 43° NNE visible
01 Jun 6.0 01:49:25 10° WNW 01:49:58 12° WNW 01:49:58 12° WNW visible
01 Jun 4.7 23:44:00 10° N 23:48:22 40° NE 23:48:22 40° NE visible
02 Jun 5.9 01:28:35 10° NW 01:29:47 14° WNW 01:29:47 14° WNW visible
02 Jun 4.8 23:23:43 10° N 23:28:14 36° NE 23:28:14 36° NE visible
03 Jun 5.7 01:07:51 10° NW 01:09:39 17° WNW 01:09:39 17° WNW visible
03 Jun 4.9 23:03:27 10° N 23:08:08 32° NE 23:08:08 32° NE visible
